Crown Princess — ZCDM6 — position and weather

sailwx.info

Track history (hours):
 
Tides and Currents Weather Stations Pressure Air Temp Water Temp Dewpoint Dewpoint Depression Visibility Wind Speed Wind Dir Waves Ship Positions

Crown Princess

Last reported at 2014-Aug-30 11:33 UTC. Time now 2014-Aug-30 12:33 UTC.
Position N 49°19' W 123°35'.

Type: Ship. MMSI: 310500000.

Date/timePositionNaut miles runAvg speedWind from/ knotsBaromVisibWave heightAir tempDewpointWater temp
2014-Aug-30 11:33N 49°19' W 123°35'1110.5
2014-Aug-30 10:32N 49°21' W 123°51'1010.6
2014-Aug-30 09:33N 49°23' W 124°07'1110.9
2014-Aug-30 08:33N 49°27' W 124°23'1210.7
2014-Aug-30 07:24N 49°35' W 124°37'11713.2
2014-Aug-29 22:33N 50°44' W 127°04'1818.4
2014-Aug-29 21:33N 50°51' W 127°30'1514.7
2014-Aug-29 20:33N 50°59' W 127°50'1615.0
2014-Aug-29 19:29N 51°09' W 128°10'  
2014-Aug-26 04:33N 58°15' W 135°35'1313.1
2014-Aug-26 03:33N 58°21' W 135°57'1312.9
2014-Aug-26 02:33N 58°33' W 136°04'1313.0
2014-Aug-26 01:33N 58°44' W 136°17'3 0.4
2014-Aug-25 18:19N 58°42' W 136°13'1216.4
2014-Aug-25 17:33N 58°31' W 136°04'1111.1
2014-Aug-25 16:33N 58°20' W 136°07'  
2014-Aug-21 23:33N 58°22' W 136°00'1414.2
2014-Aug-21 22:34N 58°36' W 136°04'8 1.1
2014-Aug-21 15:26N 58°42' W 136°14'1416.2
2014-Aug-21 14:33N 58°29' W 136°03'1211.6
2014-Aug-21 13:33N 58°19' W 135°53'1211.7
2014-Aug-21 12:32N 58°15' W 135°31'  
Track history (hours):
 
Tides and Currents Weather Stations Pressure Air Temp Water Temp Dewpoint Dewpoint Depression Visibility Wind Speed Wind Dir Waves Ship Positions

Crown Princess

Last reported at 2014-Aug-30 11:33 UTC. Time now 2014-Aug-30 12:33 UTC.
Position N 49°19' W 123°35'.

Type: Ship. MMSI: 310500000.

Date/timePositionNaut miles runAvg speedWind from/ knotsBaromVisibWave heightAir tempDewpointWater temp
2014-Aug-30 11:33N 49°19' W 123°35'1110.5
2014-Aug-30 10:32N 49°21' W 123°51'1010.6
2014-Aug-30 09:33N 49°23' W 124°07'1110.9
2014-Aug-30 08:33N 49°27' W 124°23'1210.7
2014-Aug-30 07:24N 49°35' W 124°37'11713.2
2014-Aug-29 22:33N 50°44' W 127°04'1818.4
2014-Aug-29 21:33N 50°51' W 127°30'1514.7
2014-Aug-29 20:33N 50°59' W 127°50'1615.0
2014-Aug-29 19:29N 51°09' W 128°10'  
2014-Aug-26 04:33N 58°15' W 135°35'1313.1
2014-Aug-26 03:33N 58°21' W 135°57'1312.9
2014-Aug-26 02:33N 58°33' W 136°04'1313.0
2014-Aug-26 01:33N 58°44' W 136°17'3 0.4
2014-Aug-25 18:19N 58°42' W 136°13'1216.4
2014-Aug-25 17:33N 58°31' W 136°04'1111.1
2014-Aug-25 16:33N 58°20' W 136°07'  
2014-Aug-21 23:33N 58°22' W 136°00'1414.2
2014-Aug-21 22:34N 58°36' W 136°04'8 1.1
2014-Aug-21 15:26N 58°42' W 136°14'1416.2
2014-Aug-21 14:33N 58°29' W 136°03'1211.6
2014-Aug-21 13:33N 58°19' W 135°53'1211.7
2014-Aug-21 12:32N 58°15' W 135°31'  

Dump ship's entire track history